Weather History for Aberdeen, United Kingdom

Change the Weather History Date:

Sunday, December 2, 2012

  Actual Average Record
Temperature  
Mean Temperature 30 °F -  
Max Temperature 36 °F 44 °F 50 °F (1998)
Min Temperature 24 °F 33 °F 6 °F (2010)
Degree Days  
Heating Degree Days 35    
Moisture  
Dew Point 29 °F    
Average Humidity 90    
Maximum Humidity 100    
Minimum Humidity 75    
Precipitation  
Precipitation 0.08 in 0.10 in - ()
Sea Level Pressure  
Sea Level Pressure 29.90 in    
Wind  
Wind Speed 8 mph ()    
Max Wind Speed 15 mph    
Max Gust Speed -    
Visibility 6.5 miles    
Events Snow    
Averages and records for this station are not official NWS values.
T = Trace of Precipitation, MM = Missing Value Source: Averaged Metar Reports

Daily Weather History Graph

Daily Weather History Graph

Search for Another Location

Airport:

Trip Planner

Search our weather history database for the weather conditions in past years. The results will help you decide how hot, cold, wet, or windy it might be!

Date:

Astronomy

Dec. 02, 2012 Rise Set
Actual Time 8:25 AM GMT 3:30 PM GMT
Civil Twilight 7:37 AM GMT 4:18 PM GMT
Nautical Twilight 6:47 AM GMT 5:08 PM GMT
Astronomical Twilight 6:01 AM GMT 5:55 PM GMT
Moon 7:24 PM GMT (12/2) 10:49 AM GMT (12/2)
Length of Visible Light 8h 41m
Length of Day
7h 05m
Waning Gibbous, 87% of the Moon is Illuminated
Dec 2
Waning Gibbous
Dec 6
Last Quarter
Dec 13
New
Dec 20
First Quarter
Dec 28
Full

Hourly Weather History & Observations

Time (GMT) Temp. Windchill Dew Point Humidity Pressure Visibility Wind Dir Wind Speed Gust Speed Precip Events Conditions
12:20 AM 33.8 °F 23.9 °F 30.2 °F 87% 29.89 in - WNW 15.0 mph - N/A   Clear
12:50 AM 33.8 °F 25.3 °F 30.2 °F 87% 29.89 in - WNW 11.5 mph - N/A   Clear
1:20 AM 33.8 °F 25.3 °F 30.2 °F 87% 29.89 in 6.2 mi WNW 11.5 mph - N/A   Unknown
1:50 AM 33.8 °F 25.8 °F 30.2 °F 87% 29.89 in - WNW 10.4 mph - N/A   Clear
2:20 AM 33.8 °F 25.3 °F 30.2 °F 87% 29.89 in 6.2 mi WNW 11.5 mph - N/A   Unknown
2:50 AM 34 °F - 30 °F 80% 29.91 in 22 mi WNW 11.5 mph - - Snow Snow
2:50 AM 33.8 °F 25.3 °F 30.2 °F 87% 29.89 in 6.2 mi WNW 11.5 mph - N/A   Partly Cloudy
3:20 AM 33.8 °F 25.3 °F 30.2 °F 87% 29.89 in 6.2 mi WNW 11.5 mph - N/A   Unknown
3:50 AM 33.8 °F 25.8 °F 30.2 °F 87% 29.89 in 6.2 mi WNW 10.4 mph - N/A   Unknown
4:20 AM 33.8 °F 25.8 °F 30.2 °F 87% 29.89 in 6.2 mi NW 10.4 mph - N/A   Partly Cloudy
4:50 AM 32.0 °F 24.2 °F 30.2 °F 93% 29.89 in 6.2 mi WNW 9.2 mph - N/A   Scattered Clouds
5:20 AM 33.8 °F 26.4 °F 32.0 °F 93% 29.92 in 6.2 mi WNW 9.2 mph - N/A   Scattered Clouds
5:50 AM 34 °F - 33 °F 92% 29.92 in 6 mi WNW 11.5 mph - - Snow Snow
5:50 AM 33.8 °F 25.8 °F 32.0 °F 93% 29.92 in 6.2 mi WNW 10.4 mph - N/A   Partly Cloudy
6:20 AM 33.8 °F 27.0 °F 32.0 °F 93% 29.92 in 6.2 mi WNW 8.1 mph - N/A   Scattered Clouds
6:50 AM 33.8 °F 27.0 °F 32.0 °F 93% 29.92 in 3.7 mi WNW 8.1 mph - N/A Snow Light Snow Showers
7:20 AM 33.8 °F 25.8 °F 32.0 °F 93% 29.92 in 2.5 mi NW 10.4 mph - N/A Snow Light Snow Showers
7:50 AM 33.8 °F 24.8 °F 32.0 °F 93% 29.95 in 3.7 mi NW 12.7 mph - N/A Snow Light Snow Showers
8:20 AM 33.8 °F 28.6 °F 32.0 °F 93% 29.92 in 6.2 mi WNW 5.8 mph - N/A   Scattered Clouds
8:50 AM 33 °F - 30 °F 85% 29.95 in 19 mi WNW 10.4 mph - - Snow Snow
8:50 AM 33.8 °F 27.0 °F 32.0 °F 93% 29.92 in 6.2 mi West 8.1 mph - N/A   Scattered Clouds
9:20 AM 33.8 °F 27.7 °F 32.0 °F 93% 29.95 in 5.6 mi NW 6.9 mph - N/A   Scattered Clouds
9:50 AM 33.8 °F - 32.0 °F 93% 29.95 in 6.2 mi Variable 2.3 mph - N/A   Scattered Clouds
10:20 AM 33.8 °F 28.6 °F 30.2 °F 87% 29.95 in 6.2 mi Variable 5.8 mph - N/A   Scattered Clouds
10:50 AM 33.8 °F 26.4 °F 30.2 °F 87% 29.95 in 6.2 mi North 9.2 mph - N/A   Scattered Clouds
11:20 AM 33.8 °F 27.0 °F 32.0 °F 93% 29.95 in 5.6 mi NW 8.1 mph - N/A Snow Light Snow Showers
11:50 AM 35 °F - 31 °F 79% 29.96 in 22 mi NNW 6.9 mph - - Snow Snow
11:50 AM 33.8 °F 30.8 °F 32.0 °F 93% 29.95 in 6.2 mi Variable 3.5 mph - N/A   Scattered Clouds
12:20 PM 35.6 °F 31.7 °F 32.0 °F 87% 29.95 in 6.2 mi North 4.6 mph - N/A   Scattered Clouds
12:50 PM 33.8 °F 29.6 °F 32.0 °F 93% 29.95 in 6.2 mi West 4.6 mph - N/A   Scattered Clouds
1:20 PM 35.6 °F 29.2 °F 32.0 °F 87% 29.95 in 6.2 mi WNW 8.1 mph - N/A   Scattered Clouds
1:50 PM 35.6 °F 29.2 °F 32.0 °F 87% 29.92 in 6.2 mi West 8.1 mph - N/A   Scattered Clouds
2:20 PM 35.6 °F 29.2 °F 32.0 °F 87% 29.92 in 6.2 mi West 8.1 mph - N/A   Scattered Clouds
2:50 PM 35 °F - 30 °F 75% 29.94 in 22 mi West 8.1 mph - -   Scattered Clouds
2:50 PM 35.6 °F 31.7 °F 30.2 °F 81% 29.92 in 6.2 mi West 4.6 mph - N/A   Partly Cloudy
3:20 PM 33.8 °F - 30.2 °F 87% 29.92 in 6.2 mi Calm Calm - N/A   Partly Cloudy
3:50 PM 33.8 °F 30.8 °F 30.2 °F 87% 29.92 in - Variable 3.5 mph - N/A   Clear
4:20 PM 32.0 °F 26.4 °F 28.4 °F 87% 29.92 in - WSW 5.8 mph - N/A   Clear
4:50 PM 32.0 °F 25.6 °F 28.4 °F 87% 29.92 in - WSW 6.9 mph - N/A   Clear
5:20 PM 32.0 °F 27.5 °F 28.4 °F 87% 29.92 in - West 4.6 mph - N/A   Clear
5:50 PM 29 °F - 27 °F 91% 29.91 in 13 mi North 2.3 mph - -  
5:50 PM 30.2 °F 26.7 °F 28.4 °F 93% 29.89 in - Variable 3.5 mph - N/A   Clear
6:20 PM 28.4 °F 24.6 °F 26.6 °F 93% 29.89 in - Variable 3.5 mph - N/A   Clear
6:50 PM 28.4 °F 24.6 °F 26.6 °F 93% 29.89 in - Variable 3.5 mph - N/A   Clear
7:20 PM 26.6 °F - 24.8 °F 93% 29.89 in - WSW 2.3 mph - N/A   Clear
7:50 PM 26.6 °F 21.2 °F 24.8 °F 93% 29.86 in - Variable 4.6 mph - N/A   Clear
8:20 PM 26.6 °F 22.6 °F 24.8 °F 93% 29.86 in - NNW 3.5 mph - N/A   Clear
8:50 PM 26 °F - 25 °F 92% 29.88 in 9 mi Calm Calm - -   Mostly Cloudy
8:50 PM 26.6 °F - 24.8 °F 93% 29.86 in - Variable 2.3 mph - N/A   Clear
9:20 PM 26.6 °F - 24.8 °F 93% 29.86 in - Calm Calm - N/A   Clear
9:50 PM 24.8 °F - 24.8 °F 100% 29.83 in - North 2.3 mph - N/A   Clear
10:20 PM 24.8 °F - 24.8 °F 100% 29.83 in - Calm Calm - N/A   Clear
10:50 PM 24.8 °F - 24.8 °F 100% 29.80 in - Calm Calm - N/A   Clear
11:20 PM 24.8 °F - 24.8 °F 100% 29.80 in 4.3 mi Calm Calm - N/A   Unknown
11:50 PM 25 °F - 24 °F 95% 29.81 in 6 mi North 3.5 mph - -   Mostly Cloudy
11:50 PM 24.8 °F - 24.8 °F 100% 29.80 in 5.0 mi North 2.3 mph - N/A   Unknown